XJS A (43518 NORAD) Tracking and Keplerian Element Data

This shows tracking and keplerian element data for the satellite.

Feedback or suggestion? Click here.




ElementValue
Catalog43518
NameXJS A
Epoch Orbit314
Epoch Day198.70851852
Epoch Year2018
RAAN172.492
Inclination35.004
Eccentricity0.0004633
Argument of Perigee62.6696
Mean Anonmoly285.7674
Mean Motion15.27924843
Decay Rate-4E-07
L11 43518U 18054A 18198.70851852 -.00000040 00000-0 00000+0 0 9996
L22 43518 35.0040 172.4920 0004633 62.6696 285.7674 15.27924843 3143

Live tracking and technical data element details for XJS A (NORAD 43518). XJS A can be tracked NOW for your location showing map with azimuth and elevation plus other details from your city location.

Track the satellite on the map from your city or location and see movement details for azimuth, elevation, latitude, longitude, range, height, and movement on the map or in text.







IsCatalogInMostPopularTable: catalog: 43518, numindb: 4
Update: records affected: 1



GetName: 43518 XJS A

Hit Count: updated at: Thu, 19 Jul 2018 03:57:03 GMT